Showing default

HAISHAO 1, 62190

Orbit data source: Space-Track

HAISHAO 1, 62190 is a Chinese payload satellite in LEO that was launched on Wed, 04 Dec 2024 UTC via a KUAIZHOU-1A launch vehicle from the Xichang Space Center, China (XSC). Payload-class satellites include a variety of spacecraft equipped with specific instruments for various scientific and technological missions. These include communications satellites like Starlink; space stations such as the ISS; scientific satellites like the Hubble; Earth observation satellites from companies like Planet Labs, Umbra, and HawkEye 360; GPS; miniature CubeSats for education and research; and military/defense satellites.

Loading next visibility...
Identifier
62190, 2024-228A
Orbit
LEO
Country
Flag of CNCN / PRC
Related business
Manufacturer
ZHWK/IMICAS
Mission
Operational Commercial Radar Imaging
Bus & Motor
ZK1, Unknown motor
Mass
400 kg wet, 400 kg dry
Launch date (UTC)
2024-12-04 (11 months ago)
Launch vehicle
KUAIZHOU-1A
Launch site
Xichang Space Center, China (XSC)
Object type
Payload
Rocket body
Debris
Shape & HBR
Box + 3 Pan, 3.0 m
Radar Cross Section
3.533 m², Large (>1 m²)

Expand to show TLE details & history
Last TLE update: 7 hours ago

TLE from 7 hours ago
0 HAISHAO 1
1 62190U 24228A   25310.30000711  .00126476  00000-0  12124-2 0  9997
2 62190  42.9872 258.1090 0001654 314.1646  45.9083 15.65499236 52655
Epoch: 2025-11-06T07:12Z
TLE epoch observation values (Epoch: 2025-11-06T07:12:00.614Z)
Latitude
-0.00003°
Longitude
104.3461°
Altitude
370.797 km
Speed
7.689 km/s
True Right ascension
17h 12m 26s
True Declination
0° 00' 00"
Sunlit
Object was in daylight at epoch
Visualization orbit readout
Latitude
Unknown
Longitude
Unknown
Altitude
Unknown
Speed
Unknown
Apparent Right ascension
Unknown
Apparent Declination
Unknown
Sunlit
N/A
Visualization observer readout
Local Sidereal Time
10:05:02
Azimuth
Unknown
Elevation
Unknown
Doppler factor
Unknown
Orbital elements
Apogee altitude
374.899 km
Perigee altitude
372.666 km
Semi-major axis
6,751.92 km
Eccentricity
0.00017
Inclination
42.9872°
RAAN
258.109°
Arg. of periapsis
314.1646°
True anomaly
45.92191°
Mean anomaly
45.9083°
Eccentric anomaly
45.91511°
Mean motion
3.91203 °/min
Orbital period
92.02 mins
BSTAR
0.0012124
Loading maneuver chart data...
Computing Atmospheric mass density...
Loading historical data...
Loading historical data...
Loading historical data...
Loading historical data...
Loading historical data...
Loading historical data...
Loading historical data...
Other satellites on launch #228 in the year 2024 (2024-12-04 UTC)

Documentation

Showing up to 5 results
|